,,,PA_Meas_PMT16A,,PR_Meas_QMR101_102,,RH_Meas_QMH101,,SR_Meas_QMS101,,TA_Meas_QMH101,,GenWind,,GenWind,
date,time,status,PA,status,PR,status,RH,status,SR,status,TA,status,DirAvg,status,SpdAvg,
2011-01-10, 00:00:05,VALID,1000.72,VALID,0,INVALID,163.594,VALID,0,VALID,25.9213,VALID,1,VALID,0.597266,
2011-01-10, 00:01:05,VALID,1000.7,VALID,0,INVALID,163.586,VALID,0,VALID,25.9408,VALID,358,VALID,0.939453,
2011-01-10, 00:02:05,VALID,1000.69,VALID,0,INVALID,163.578,VALID,0.100563,VALID,25.9602,VALID,357,VALID,0.444531,
2011-01-10, 00:03:05,VALID,1000.64,VALID,0,INVALID,163.571,VALID,0,VALID,25.9408,VALID,3,VALID,0.672266,
2011-01-10, 00:04:05,VALID,1000.6,VALID,0,INVALID,163.563,VALID,0.100563,VALID,25.9602,VALID,353,VALID,0.447656,
2011-01-10, 00:05:05,VALID,1000.57,VALID,0,INVALID,163.548,VALID,0,VALID,26.0012,VALID,341,VALID,0.661328,
2011-01-10, 00:06:05,VALID,1000.52,VALID,0,INVALID,163.586,VALID,0,VALID,25.9992,VALID,13,VALID,0.422656,
2011-01-10, 00:07:05,VALID,1000.52,VALID,0,INVALID,163.556,VALID,0,VALID,26.0187,VALID,9,VALID,0.777344,
2011-01-10, 00:08:05,VALID,1000.49,VALID,0,INVALID,163.563,VALID,0,VALID,26.0381,VALID,3,VALID,0.546875,
2011-01-10, 00:09:05,VALID,1000.51,VALID,0,INVALID,163.548,VALID,0,VALID,26.0167,VALID,350,VALID,0.737891,
2011-01-10, 00:10:05,VALID,1000.49,VALID,0,INVALID,163.556,VALID,0,VALID,26.1005,VALID,351,VALID,0.691016,
2011-01-10, 00:11:05,VALID,1000.49,VALID,0,INVALID,163.548,VALID,0,VALID,26.0985,VALID,359,VALID,0.53125,
2011-01-10, 00:12:05,VALID,1000.49,VALID,0,INVALID,163.571,VALID,0,VALID,26.0791,VALID,5,VALID,0.585547,
2011-01-10, 00:13:05,VALID,1000.46,VALID,0,INVALID,163.563,VALID,0,VALID,26.1005,VALID,1,VALID,0.814844,
2011-01-10, 00:14:05,VALID,1000.45,VALID,0,INVALID,163.563,VALID,0,VALID,26.0576,VALID,1,VALID,0.261328,
2011-01-10, 00:15:05,VALID,1000.43,VALID,0,INVALID,163.548,VALID,0,VALID,26.0596,VALID,39,VALID,0.741406,
2011-01-10, 00:16:05,VALID,1000.41,VALID,0,INVALID,163.563,VALID,0,VALID,26.0187,VALID,45,VALID,0.299219,
2011-01-10, 00:17:05,VALID,1000.43,VALID,0,INVALID,163.571,VALID,0,VALID,25.9992,VALID,45,VALID,0.320703,
2011-01-10, 00:18:05,VALID,1000.41,VALID,0,INVALID,163.563,VALID,0,VALID,25.9817,VALID,45,VALID,0.432031,
2011-01-10, 00:19:05,VALID,1000.42,VALID,0,INVALID,163.548,VALID,0,VALID,25.9622,VALID,20,VALID,0.396094,
2011-01-10, 00:20:05,VALID,1000.41,VALID,0,INVALID,163.571,VALID,0,VALID,25.9232,VALID,20,VALID,0.225,
2011-01-10, 00:21:05,VALID,1000.38,VALID,0,INVALID,163.586,VALID,0,VALID,25.9018,VALID,20,VALID,0.209375,
2011-01-10, 00:22:05,VALID,1000.34,VALID,0,INVALID,163.571,VALID,0,VALID,25.9038,VALID,20,VALID,0.476953,
2011-01-10, 00:23:05,VALID,1000.3,VALID,0,INVALID,163.586,VALID,0,VALID,25.8843,VALID,20,VALID,0.642578,
2011-01-10, 00:24:05,VALID,1000.26,VALID,0,INVALID,163.586,VALID,0,VALID,25.8648,VALID,20,VALID,0.167578,
2011-01-10, 00:25:05,VALID,1000.22,VALID,0,INVALID,163.556,VALID,0,VALID,25.8434,VALID,20,VALID,0.295312,
2011-01-10, 00:26:05,VALID,1000.19,VALID,0,INVALID,163.578,VALID,0,VALID,25.8648,VALID,20,VALID,0.144141,
2011-01-10, 00:27:05,VALID,1000.15,VALID,0,INVALID,163.586,VALID,0.100563,VALID,25.8414,VALID,14,VALID,0.582812,
2011-01-10, 00:28:05,VALID,1000.11,VALID,0,INVALID,163.578,VALID,0.100563,VALID,25.8629,VALID,355,VALID,0.421875,
2011-01-10, 00:29:05,VALID,1000.08,VALID,0,INVALID,163.571,VALID,0,VALID,25.8629,VALID,350,VALID,0.659375,
2011-01-10, 00:30:04,VALID,1000.07,VALID,0,INVALID,163.578,VALID,0.100563,VALID,25.9018,VALID,2,VALID,0.548437,
2011-01-10, 00:31:04,VALID,1000.07,VALID,0,INVALID,163.578,VALID,0.100563,VALID,25.8804,VALID,1,VALID,0.389062,
2011-01-10, 00:32:04,VALID,1000.09,VALID,0,INVALID,163.601,VALID,0,VALID,25.9018,VALID,1,VALID,0.328125,
2011-01-10, 00:33:04,VALID,1000.08,VALID,0,INVALID,163.601,VALID,0,VALID,25.8843,VALID,1,VALID,0.442969,
2011-01-10, 00:34:04,VALID,1000.08,VALID,0,INVALID,163.586,VALID,0,VALID,25.8629,VALID,1,VALID,0.133203,
2011-01-10, 00:35:04,VALID,1000.07,VALID,0,INVALID,163.594,VALID,0,VALID,25.8434,VALID,337,VALID,0.494531,
2011-01-10, 00:36:04,VALID,1000.08,VALID,0,INVALID,163.586,VALID,0.100563,VALID,25.8239,VALID,336,VALID,0.153125,
2011-01-10, 00:37:04,VALID,1000.07,VALID,0,INVALID,163.571,VALID,0,VALID,25.8239,VALID,336,VALID,0.257813,
2011-01-10, 00:38:04,VALID,1000.1,VALID,0,INVALID,163.571,VALID,0.100563,VALID,25.8219,VALID,336,VALID,0.182031,
2011-01-10, 00:39:04,VALID,1000.11,VALID,0,INVALID,163.571,VALID,0,VALID,25.8044,VALID,336,VALID,0.0015625,
2011-01-10, 00:40:04,VALID,1000.09,VALID,0,INVALID,163.594,VALID,0,VALID,25.8259,VALID,336,VALID,0.227344,
2011-01-10, 00:41:04,VALID,1000.11,VALID,0,INVALID,163.571,VALID,0,VALID,25.8648,VALID,349,VALID,0.34375,
2011-01-10, 00:42:04,VALID,1000.09,VALID,0,INVALID,163.594,VALID,0,VALID,25.8843,VALID,354,VALID,0.485156,
2011-01-10, 00:43:04,VALID,1000.08,VALID,0,INVALID,163.594,VALID,0,VALID,25.8648,VALID,6,VALID,0.596094,
2011-01-10, 00:44:04,VALID,1000.04,VALID,0,INVALID,163.571,VALID,0,VALID,25.8044,VALID,9,VALID,0.505078,
2011-01-10, 00:45:04,VALID,999.965,VALID,0,INVALID,163.578,VALID,0,VALID,25.7869,VALID,5,VALID,0.426562,
2011-01-10, 00:46:04,VALID,999.978,VALID,0,INVALID,163.586,VALID,0,VALID,25.748,VALID,5,VALID,0.250391,
2011-01-10, 00:47:04,VALID,999.97,VALID,0,INVALID,163.578,VALID,0,VALID,25.6876,VALID,5,VALID,0.389844,
2011-01-10, 00:48:04,VALID,999.953,VALID,0,INVALID,163.578,VALID,0,VALID,25.67,VALID,4,VALID,0.428125,
2011-01-10, 00:49:04,VALID,999.948,VALID,0,INVALID,163.594,VALID,0,VALID,25.6506,VALID,4,VALID,0.207031,
2011-01-10, 00:50:04,VALID,999.946,VALID,0,INVALID,163.578,VALID,0,VALID,25.6292,VALID,359,VALID,0.246484,
2011-01-10, 00:51:04,VALID,999.976,VALID,0,INVALID,163.601,VALID,0,VALID,25.6506,VALID,348,VALID,0.378125,
2011-01-10, 00:52:04,VALID,999.999,VALID,0,INVALID,163.601,VALID,0,VALID,25.6506,VALID,348,VALID,0.374609,
2011-01-10, 00:53:04,VALID,999.976,VALID,0,INVALID,163.586,VALID,0,VALID,25.6506,VALID,346,VALID,0.449219,
2011-01-10, 00:54:04,VALID,999.987,VALID,0,INVALID,163.609,VALID,0,VALID,25.6506,VALID,351,VALID,0.503516,
2011-01-10, 00:55:04,VALID,1000.01,VALID,0,INVALID,163.601,VALID,0,VALID,25.6486,VALID,355,VALID,0.323438,
2011-01-10, 00:56:04,VALID,999.992,VALID,0,INVALID,163.578,VALID,0,VALID,25.7109,VALID,355,VALID,0.357031,
2011-01-10, 00:57:04,VALID,999.995,VALID,0,INVALID,163.601,VALID,0,VALID,25.709,VALID,331,VALID,0.421875,
2011-01-10, 00:58:04,VALID,999.986,VALID,0,INVALID,163.601,VALID,0,VALID,25.7285,VALID,336,VALID,0.303906,
2011-01-10, 00:59:04,VALID,1000,VALID,0,INVALID,163.578,VALID,0,VALID,25.748,VALID,340,VALID,0.2625,
2011-01-10, 01:00:04,VALID,1000,VALID,0,INVALID,163.609,VALID,0,VALID,25.746,VALID,325,VALID,0.488281,
2011-01-10, 01:01:04,VALID,999.995,VALID,0,INVALID,163.578,VALID,0,VALID,25.785,VALID,288,VALID,0.207422,
2011-01-10, 01:02:04,VALID,999.981,VALID,0,INVALID,163.571,VALID,0,VALID,25.8453,VALID,288,VALID,0.145703,
2011-01-10, 01:03:04,VALID,1000.01,VALID,0,INVALID,163.556,VALID,0,VALID,25.8453,VALID,288,VALID,0.0585938,
2011-01-10, 01:04:04,VALID,1000.01,VALID,0,INVALID,163.563,VALID,0,VALID,25.8648,VALID,288,VALID,0.428516,
2011-01-10, 01:05:04,VALID,1000.03,VALID,0,INVALID,163.563,VALID,0,VALID,25.9057,VALID,306,VALID,0.564062,
2011-01-10, 01:06:04,VALID,1000.02,VALID,0,INVALID,163.571,VALID,0,VALID,25.9232,VALID,297,VALID,0.662109,
2011-01-10, 01:07:04,VALID,1000.03,VALID,0,INVALID,163.571,VALID,0,VALID,25.9427,VALID,290,VALID,0.430859,
2011-01-10, 01:08:04,VALID,1000.02,VALID,0,INVALID,163.563,VALID,0,VALID,25.9622,VALID,291,VALID,0.178125,
2011-01-10, 01:09:04,VALID,1000.05,VALID,0,INVALID,163.571,VALID,0,VALID,25.9622,VALID,289,VALID,0.505859,
2011-01-10, 01:10:04,VALID,1000.04,VALID,0,INVALID,163.563,VALID,0,VALID,25.9836,VALID,339,VALID,0.233594,
2011-01-10, 01:11:04,VALID,1000.04,VALID,0,INVALID,163.586,VALID,0,VALID,25.9602,VALID,343,VALID,0.472266,
2011-01-10, 01:12:04,VALID,1000.05,VALID,0,INVALID,163.586,VALID,0,VALID,26.0031,VALID,347,VALID,0.341797,
2011-01-10, 01:13:04,VALID,1000.02,VALID,0,INVALID,163.556,VALID,0,VALID,25.9817,VALID,350,VALID,0.589063,
2011-01-10, 01:14:04,VALID,1000.03,VALID,0,INVALID,163.556,VALID,0,VALID,25.9018,VALID,351,VALID,0.607031,
2011-01-10, 01:15:04,VALID,999.971,VALID,0,INVALID,163.571,VALID,0,VALID,25.8648,VALID,360,VALID,1.08516,
2011-01-10, 01:16:04,VALID,999.974,VALID,0,INVALID,163.571,VALID,0,VALID,25.8648,VALID,350,VALID,1.09766,
2011-01-10, 01:17:04,VALID,999.966,VALID,0,INVALID,163.571,VALID,0,VALID,25.8863,VALID,346,VALID,1.00234,
2011-01-10, 01:18:04,VALID,999.914,VALID,0,INVALID,163.578,VALID,0,VALID,25.9038,VALID,353,VALID,0.972266,
2011-01-10, 01:19:04,VALID,999.897,VALID,0,INVALID,163.571,VALID,0,VALID,25.8823,VALID,345,VALID,0.719531,
2011-01-10, 01:20:04,VALID,999.871,VALID,0,INVALID,163.578,VALID,0,VALID,25.8843,VALID,347,VALID,0.8625,
2011-01-10, 01:21:04,VALID,999.881,VALID,0,INVALID,163.571,VALID,0,VALID,25.8843,VALID,359,VALID,0.778516,
2011-01-10, 01:22:04,VALID,999.841,VALID,0,INVALID,163.609,VALID,0,VALID,25.8648,VALID,354,VALID,0.48125,
2011-01-10, 01:23:04,VALID,999.816,VALID,0,INVALID,163.594,VALID,0,VALID,25.8259,VALID,345,VALID,1.03242,
2011-01-10, 01:24:04,VALID,999.805,VALID,0,INVALID,163.594,VALID,0,VALID,25.7869,VALID,340,VALID,0.469531,
2011-01-10, 01:25:04,VALID,999.766,VALID,0,INVALID,163.586,VALID,0,VALID,25.7655,VALID,2,VALID,0.863281,
2011-01-10, 01:26:04,VALID,999.763,VALID,0,INVALID,163.563,VALID,0,VALID,25.7674,VALID,358,VALID,1.23711,
2011-01-10, 01:27:04,VALID,999.746,VALID,0,INVALID,163.578,VALID,0,VALID,25.7674,VALID,346,VALID,0.844531,
2011-01-10, 01:28:04,VALID,999.749,VALID,0,INVALID,163.594,VALID,0,VALID,25.7889,VALID,353,VALID,0.844922,
2011-01-10, 01:29:04,VALID,999.73,VALID,0,INVALID,163.571,VALID,0,VALID,25.7674,VALID,4,VALID,1.39961,
2011-01-10, 01:30:04,VALID,999.733,VALID,0,INVALID,163.571,VALID,0,VALID,25.8259,VALID,10,VALID,1.41602,
2011-01-10, 01:31:04,VALID,999.701,VALID,0,INVALID,163.54,VALID,0,VALID,25.8843,VALID,358,VALID,0.843359,
2011-01-10, 01:32:04,VALID,999.658,VALID,0,INVALID,163.586,VALID,0,VALID,25.8823,VALID,328,VALID,0.650391,
2011-01-10, 01:33:04,VALID,999.631,VALID,0,INVALID,163.571,VALID,0,VALID,25.9232,VALID,3,VALID,0.877734,
2011-01-10, 01:34:04,VALID,999.614,VALID,0,INVALID,163.563,VALID,0,VALID,25.9232,VALID,326,VALID,0.6625,
2011-01-10, 01:35:04,VALID,999.579,VALID,0,INVALID,163.571,VALID,0,VALID,25.9252,VALID,323,VALID,1.02617,
2011-01-10, 01:36:04,VALID,999.548,VALID,0,INVALID,163.556,VALID,0,VALID,25.9232,VALID,337,VALID,0.704687,
2011-01-10, 01:37:04,VALID,999.528,VALID,0,INVALID,163.578,VALID,0,VALID,25.9447,VALID,344,VALID,0.673828,
2011-01-10, 01:38:04,VALID,999.513,VALID,0,INVALID,163.578,VALID,0,VALID,25.9232,VALID,336,VALID,1.16133,
2011-01-10, 01:39:04,VALID,999.512,VALID,0,INVALID,163.571,VALID,0,VALID,25.9427,VALID,337,VALID,0.587109,
2011-01-10, 01:40:04,VALID,999.484,VALID,0,INVALID,163.563,VALID,0,VALID,25.9602,VALID,341,VALID,0.499609,
2011-01-10, 01:41:04,VALID,999.49,VALID,0,INVALID,163.556,VALID,0,VALID,25.9817,VALID,342,VALID,0.855859,
2011-01-10, 01:42:04,VALID,999.458,VALID,0,INVALID,163.586,VALID,0,VALID,25.9622,VALID,1,VALID,0.9,
2011-01-10, 01:43:04,VALID,999.44,VALID,0,INVALID,163.571,VALID,0,VALID,25.9408,VALID,344,VALID,0.61875,
2011-01-10, 01:44:04,VALID,999.413,VALID,0,INVALID,163.578,VALID,0,VALID,25.9427,VALID,353,VALID,0.990625,
2011-01-10, 01:45:04,VALID,999.403,VALID,0,INVALID,163.586,VALID,0,VALID,25.9427,VALID,353,VALID,0.819922,
2011-01-10, 01:46:04,VALID,999.407,VALID,0,INVALID,163.556,VALID,0,VALID,25.9427,VALID,352,VALID,1.17539,
2011-01-10, 01:47:04,VALID,999.396,VALID,0,INVALID,163.571,VALID,0,VALID,25.9622,VALID,358,VALID,0.957031,
2011-01-10, 01:48:04,VALID,999.419,VALID,0,INVALID,163.563,VALID,0,VALID,25.9602,VALID,350,VALID,1.48516,
2011-01-10, 01:49:04,VALID,999.412,VALID,0,INVALID,163.563,VALID,0,VALID,26.0187,VALID,356,VALID,0.523438,
2011-01-10, 01:50:04,VALID,999.431,VALID,0,INVALID,163.563,VALID,0,VALID,25.9992,VALID,350,VALID,0.435156,
2011-01-10, 01:51:04,VALID,999.437,VALID,0,INVALID,163.578,VALID,0,VALID,26.0012,VALID,341,VALID,0.543359,
2011-01-10, 01:52:04,VALID,999.429,VALID,0,INVALID,163.578,VALID,0,VALID,25.9817,VALID,334,VALID,0.535547,
2011-01-10, 01:53:04,VALID,999.446,VALID,0,INVALID,163.571,VALID,0,VALID,25.9797,VALID,341,VALID,0.512891,
2011-01-10, 01:54:04,VALID,999.435,VALID,0,INVALID,163.578,VALID,0,VALID,25.9817,VALID,7,VALID,0.556641,
2011-01-10, 01:55:04,VALID,999.439,VALID,0,INVALID,163.556,VALID,0,VALID,25.9797,VALID,359,VALID,0.638672,
2011-01-10, 01:56:04,VALID,999.428,VALID,0,INVALID,163.563,VALID,0,VALID,25.9992,VALID,2,VALID,0.4375,
2011-01-10, 01:57:04,VALID,999.44,VALID,0,INVALID,163.556,VALID,0,VALID,26.0012,VALID,2,VALID,0.585547,
2011-01-10, 01:58:04,VALID,999.426,VALID,0,INVALID,163.548,VALID,0,VALID,25.9992,VALID,352,VALID,0.646875,
2011-01-10, 01:59:04,VALID,999.352,VALID,0,INVALID,163.556,VALID,0,VALID,26.0187,VALID,11,VALID,0.548047,
2011-01-10, 02:00:04,VALID,999.361,VALID,0,INVALID,163.548,VALID,0,VALID,25.9992,VALID,22,VALID,0.544922,
2011-01-10, 02:01:04,VALID,999.302,VALID,0,INVALID,163.533,VALID,0,VALID,25.9992,VALID,16,VALID,0.546094,
2011-01-10, 02:02:04,VALID,999.249,VALID,0,INVALID,163.533,VALID,0,VALID,26.0012,VALID,16,VALID,0.430859,
2011-01-10, 02:03:04,VALID,999.261,VALID,0,INVALID,163.548,VALID,0,VALID,25.9427,VALID,13,VALID,0.465234,
2011-01-10, 02:04:04,VALID,999.23,VALID,0,INVALID,163.556,VALID,0,VALID,25.9213,VALID,11,VALID,0.389453,
2011-01-10, 02:05:04,VALID,999.171,VALID,0,INVALID,163.54,VALID,0,VALID,25.9232,VALID,352,VALID,0.473437,
2011-01-10, 02:06:04,VALID,999.148,VALID,0,INVALID,163.556,VALID,0,VALID,25.8998,VALID,352,VALID,0.340234,
2011-01-10, 02:07:04,VALID,999.135,VALID,0,INVALID,163.563,VALID,0,VALID,25.8804,VALID,352,VALID,0.438281,
2011-01-10, 02:08:04,VALID,999.12,VALID,0,INVALID,163.556,VALID,0,VALID,25.9018,VALID,339,VALID,0.274609,
2011-01-10, 02:09:04,VALID,999.094,VALID,0,INVALID,163.594,VALID,0,VALID,25.9232,VALID,357,VALID,0.638281,
2011-01-10, 02:10:04,VALID,999.09,VALID,0,INVALID,163.533,VALID,0,VALID,25.8823,VALID,342,VALID,0.548437,
2011-01-10, 02:11:04,VALID,999.059,VALID,0,INVALID,163.548,VALID,0,VALID,25.9427,VALID,354,VALID,0.561719,
2011-01-10, 02:12:04,VALID,999.048,VALID,0,INVALID,163.563,VALID,0,VALID,25.9232,VALID,355,VALID,0.726953,
2011-01-10, 02:13:04,VALID,999.032,VALID,0,INVALID,163.548,VALID,0,VALID,25.9038,VALID,355,VALID,0.335547,
2011-01-10, 02:14:04,VALID,999.002,VALID,0,INVALID,163.594,VALID,0,VALID,25.8414,VALID,355,VALID,0.492578,
2011-01-10, 02:15:04,VALID,998.944,VALID,0,INVALID,163.586,VALID,0,VALID,25.8648,VALID,346,VALID,0.692578,
2011-01-10, 02:16:04,VALID,998.95,VALID,0,INVALID,163.586,VALID,0,VALID,25.8453,VALID,23,VALID,0.932813,
2011-01-10, 02:17:04,VALID,998.907,VALID,0,INVALID,163.563,VALID,0,VALID,25.8239,VALID,353,VALID,0.823047,
2011-01-10, 02:18:04,VALID,998.896,VALID,0,INVALID,163.586,VALID,0,VALID,25.8044,VALID,356,VALID,0.945703,
2011-01-10, 02:19:04,VALID,998.871,VALID,0,INVALID,163.578,VALID,0,VALID,25.8239,VALID,2,VALID,0.741406,
2011-01-10, 02:20:04,VALID,998.858,VALID,0,INVALID,163.578,VALID,0,VALID,25.8453,VALID,357,VALID,0.472266,
2011-01-10, 02:21:04,VALID,998.839,VALID,0,INVALID,163.563,VALID,0,VALID,25.8239,VALID,355,VALID,0.758984,
2011-01-10, 02:22:04,VALID,998.797,VALID,0,INVALID,163.586,VALID,0,VALID,25.8239,VALID,356,VALID,0.627734,
2011-01-10, 02:23:04,VALID,998.75,VALID,0,INVALID,163.571,VALID,0,VALID,25.8239,VALID,353,VALID,0.666016,
2011-01-10, 02:24:04,VALID,998.737,VALID,0,INVALID,163.563,VALID,0,VALID,25.8434,VALID,347,VALID,0.709766,
2011-01-10, 02:25:04,VALID,998.72,VALID,0,INVALID,163.563,VALID,0,VALID,25.8648,VALID,349,VALID,0.701172,
2011-01-10, 02:26:04,VALID,998.713,VALID,0,INVALID,163.563,VALID,0,VALID,25.8648,VALID,351,VALID,0.691016,
2011-01-10, 02:27:04,VALID,998.697,VALID,0,INVALID,163.586,VALID,0,VALID,25.8648,VALID,352,VALID,0.460156,
2011-01-10, 02:28:04,VALID,998.662,VALID,0,INVALID,163.571,VALID,0,VALID,25.8863,VALID,352,VALID,0.277734,
2011-01-10, 02:29:04,VALID,998.71,VALID,0,INVALID,163.548,VALID,0,VALID,25.8453,VALID,352,VALID,0.25625,
2011-01-10, 02:30:04,VALID,998.707,VALID,0,INVALID,163.571,VALID,0,VALID,25.8453,VALID,352,VALID,0.227344,
2011-01-10, 02:31:04,VALID,998.664,VALID,0,INVALID,163.563,VALID,0,VALID,25.8259,VALID,352,VALID,0.232422,
2011-01-10, 02:32:04,VALID,998.68,VALID,0,INVALID,163.601,VALID,0,VALID,25.8473,VALID,352,VALID,0.220313,
2011-01-10, 02:33:04,VALID,998.663,VALID,0,INVALID,163.586,VALID,0,VALID,25.8473,VALID,352,VALID,0,
2011-01-10, 02:34:04,VALID,998.63,VALID,0,INVALID,163.556,VALID,0,VALID,25.8259,VALID,352,VALID,0.208984,
2011-01-10, 02:35:04,VALID,998.607,VALID,0,INVALID,163.548,VALID,0,VALID,25.8453,VALID,352,VALID,0.369141,
2011-01-10, 02:36:04,VALID,998.605,VALID,0,INVALID,163.556,VALID,0,VALID,25.8453,VALID,352,VALID,0.369141,
2011-01-10, 02:37:04,VALID,998.598,VALID,0,INVALID,163.556,VALID,0,VALID,25.8453,VALID,352,VALID,0.275391,
2011-01-10, 02:38:04,VALID,998.56,VALID,0,INVALID,163.578,VALID,0,VALID,25.8843,VALID,295,VALID,0.434766,
2011-01-10, 02:39:04,VALID,998.544,VALID,0,INVALID,163.556,VALID,0,VALID,25.9038,VALID,292,VALID,0.412109,
2011-01-10, 02:40:04,VALID,998.537,VALID,0,INVALID,163.563,VALID,0,VALID,25.8823,VALID,292,VALID,0.200391,
2011-01-10, 02:41:04,VALID,998.544,VALID,0,INVALID,163.563,VALID,0.100563,VALID,25.9018,VALID,354,VALID,0.332422,
2011-01-10, 02:42:04,VALID,998.529,VALID,0,INVALID,163.578,VALID,0,VALID,25.9038,VALID,354,VALID,0.6,
2011-01-10, 02:43:04,VALID,998.51,VALID,0,INVALID,163.571,VALID,0,VALID,25.8629,VALID,353,VALID,0.135156,
2011-01-10, 02:44:04,VALID,998.517,VALID,0,INVALID,163.578,VALID,0,VALID,25.8823,VALID,353,VALID,0.180078,
2011-01-10, 02:45:04,VALID,998.531,VALID,0,INVALID,163.525,VALID,0,VALID,25.8434,VALID,346,VALID,0.200391,
2011-01-10, 02:46:04,VALID,998.55,VALID,0,INVALID,163.563,VALID,0,VALID,25.8219,VALID,310,VALID,0.419141,
2011-01-10, 02:47:04,VALID,998.559,VALID,0,INVALID,163.548,VALID,0,VALID,25.8434,VALID,307,VALID,0.0640625,
2011-01-10, 02:48:04,VALID,998.575,VALID,0,INVALID,163.571,VALID,0,VALID,25.8629,VALID,307,VALID,0.140234,
2011-01-10, 02:49:04,VALID,998.618,VALID,0,INVALID,163.571,VALID,0,VALID,25.8648,VALID,339,VALID,0.451562,
2011-01-10, 02:50:04,VALID,998.649,VALID,0,INVALID,163.571,VALID,0,VALID,25.8434,VALID,348,VALID,0.233984,
2011-01-10, 02:51:04,VALID,998.649,VALID,0,INVALID,163.571,VALID,0,VALID,25.8648,VALID,351,VALID,0.276172,
2011-01-10, 02:52:04,VALID,998.685,VALID,0,INVALID,163.571,VALID,0,VALID,25.8239,VALID,357,VALID,0.0242187,
2011-01-10, 02:53:04,VALID,998.673,VALID,0,INVALID,163.556,VALID,0,VALID,25.8044,VALID,351,VALID,0.809766,
2011-01-10, 02:54:04,VALID,998.712,VALID,0,INVALID,163.578,VALID,0,VALID,25.7869,VALID,354,VALID,0.749219,
2011-01-10, 02:55:04,VALID,998.684,VALID,0,INVALID,163.601,VALID,0,VALID,25.7265,VALID,349,VALID,0.898828,
2011-01-10, 02:56:04,VALID,998.692,VALID,0,INVALID,163.609,VALID,0,VALID,25.6895,VALID,356,VALID,0.758203,
2011-01-10, 02:57:04,VALID,998.662,VALID,0,INVALID,163.586,VALID,0.100563,VALID,25.6506,VALID,347,VALID,0.648828,
2011-01-10, 02:58:04,VALID,998.624,VALID,0,INVALID,163.594,VALID,0,VALID,25.6311,VALID,350,VALID,0.788281,
2011-01-10, 02:59:04,VALID,998.614,VALID,0,INVALID,163.601,VALID,0,VALID,25.5707,VALID,352,VALID,0.903906,
2011-01-10, 03:00:04,VALID,998.59,VALID,0,INVALID,163.601,VALID,0,VALID,25.5727,VALID,350,VALID,0.761719,
2011-01-10, 03:01:04,VALID,998.58,VALID,0,INVALID,163.601,VALID,0,VALID,25.5142,VALID,348,VALID,0.738672,
2011-01-10, 03:02:04,VALID,998.575,VALID,0,INVALID,163.601,VALID,0,VALID,25.4948,VALID,351,VALID,0.584375,
2011-01-10, 03:03:04,VALID,998.57,VALID,0,INVALID,163.617,VALID,0,VALID,25.4558,VALID,350,VALID,0.622656,
2011-01-10, 03:04:04,VALID,998.613,VALID,0,INVALID,163.601,VALID,0.100563,VALID,25.3955,VALID,352,VALID,0.665625,
2011-01-10, 03:05:04,VALID,998.631,VALID,0,INVALID,163.609,VALID,0,VALID,25.376,VALID,355,VALID,0.592969,
2011-01-10, 03:06:04,VALID,998.643,VALID,0,INVALID,163.609,VALID,0,VALID,25.3565,VALID,353,VALID,0.846484,
2011-01-10, 03:07:04,VALID,998.612,VALID,0,INVALID,163.609,VALID,0,VALID,25.3565,VALID,344,VALID,0.515234,
2011-01-10, 03:08:04,VALID,998.629,VALID,0,INVALID,163.609,VALID,0.100563,VALID,25.337,VALID,7,VALID,0.556641,
2011-01-10, 03:09:04,VALID,998.643,VALID,0,INVALID,163.632,VALID,0,VALID,25.3,VALID,352,VALID,0.681641,
2011-01-10, 03:10:04,VALID,998.602,VALID,0,INVALID,163.632,VALID,0,VALID,25.2592,VALID,351,VALID,0.589063,
2011-01-10, 03:11:04,VALID,998.604,VALID,0,INVALID,163.639,VALID,0,VALID,25.2825,VALID,336,VALID,0.308594,
2011-01-10, 03:12:04,VALID,998.619,VALID,0,INVALID,163.617,VALID,0,VALID,25.2416,VALID,336,VALID,0.133203,
2011-01-10, 03:13:04,VALID,998.592,VALID,0,INVALID,163.624,VALID,0,VALID,25.2221,VALID,338,VALID,0.24375,
2011-01-10, 03:14:04,VALID,998.572,VALID,0,INVALID,163.639,VALID,0,VALID,25.2221,VALID,338,VALID,0.0359375,
2011-01-10, 03:15:04,VALID,998.566,VALID,0,INVALID,163.609,VALID,0,VALID,25.2416,VALID,338,VALID,0.0820313,
2011-01-10, 03:16:04,VALID,998.565,VALID,0,INVALID,163.601,VALID,0,VALID,25.2027,VALID,338,VALID,0.0546875,
2011-01-10, 03:17:04,VALID,998.569,VALID,0,INVALID,163.624,VALID,0,VALID,25.2435,VALID,338,VALID,0.325391,
2011-01-10, 03:18:04,VALID,998.571,VALID,0,INVALID,163.617,VALID,0,VALID,25.2221,VALID,356,VALID,0.578516,
2011-01-10, 03:19:04,VALID,998.562,VALID,0,INVALID,163.609,VALID,0,VALID,25.2416,VALID,2,VALID,0.430078,
2011-01-10, 03:20:04,VALID,998.572,VALID,0,INVALID,163.617,VALID,0,VALID,25.2416,VALID,2,VALID,0.304297,
2011-01-10, 03:21:04,VALID,998.561,VALID,0,INVALID,163.617,VALID,0,VALID,25.2416,VALID,2,VALID,0.605469,
2011-01-10, 03:22:04,VALID,998.555,VALID,0,INVALID,163.624,VALID,0,VALID,25.2221,VALID,354,VALID,0.541406,
2011-01-10, 03:23:04,VALID,998.555,VALID,0,INVALID,163.639,VALID,0,VALID,25.2416,VALID,20,VALID,0.346094,
2011-01-10, 03:24:04,VALID,998.567,VALID,0,INVALID,163.617,VALID,0,VALID,25.2611,VALID,14,VALID,0.298828,
2011-01-10, 03:25:04,VALID,998.547,VALID,0,INVALID,163.624,VALID,0,VALID,25.2806,VALID,12,VALID,0.0429688,
2011-01-10, 03:26:04,VALID,998.568,VALID,0,INVALID,163.647,VALID,0.100563,VALID,25.2592,VALID,12,VALID,0.0578125,
2011-01-10, 03:27:04,VALID,998.565,VALID,0,INVALID,163.601,VALID,0.100563,VALID,25.2592,VALID,295,VALID,0.511328,
2011-01-10, 03:28:04,VALID,998.593,VALID,0,INVALID,163.571,VALID,0,VALID,25.2786,VALID,281,VALID,0.182422,
2011-01-10, 03:29:04,VALID,998.585,VALID,0,INVALID,163.624,VALID,0,VALID,25.3176,VALID,281,VALID,0.00195313,
2011-01-10, 03:30:04,VALID,998.613,VALID,0,INVALID,163.639,VALID,0,VALID,25.3176,VALID,281,VALID,0,
2011-01-10, 03:31:04,VALID,998.625,VALID,0,INVALID,163.617,VALID,0,VALID,25.3176,VALID,284,VALID,0.0304688,
2011-01-10, 03:32:04,VALID,998.696,VALID,0,INVALID,163.624,VALID,0.100563,VALID,25.3565,VALID,296,VALID,0.071875,
2011-01-10, 03:33:04,VALID,998.708,VALID,0,INVALID,163.624,VALID,0,VALID,25.3974,VALID,297,VALID,0.0332031,
2011-01-10, 03:34:04,VALID,998.755,VALID,0,INVALID,163.609,VALID,0,VALID,25.3974,VALID,339,VALID,0.437891,
2011-01-10, 03:35:04,VALID,998.75,VALID,0,INVALID,163.639,VALID,0.100563,VALID,25.3741,VALID,343,VALID,0.657031,
2011-01-10, 03:36:04,VALID,998.741,VALID,0,INVALID,163.639,VALID,0,VALID,25.3546,VALID,352,VALID,0.629297,
2011-01-10, 03:37:04,VALID,998.755,VALID,0,INVALID,163.609,VALID,0.100563,VALID,25.337,VALID,352,VALID,0.235547,
2011-01-10, 03:38:04,VALID,998.767,VALID,0,INVALID,163.624,VALID,0,VALID,25.3195,VALID,352,VALID,0.294531,
2011-01-10, 03:39:04,VALID,998.781,VALID,0,INVALID,163.639,VALID,0,VALID,25.2611,VALID,352,VALID,0,